Regional Weather Roundup
Issued by NWS

Home | Current Version | Previous Version | Graphics & Text | Print | Product List | Glossary On
Versions: 1 2 3 4 5 6 7 8 9 10 11 12 13 14 15 16 17 18 19 20 21 22 23 24 25 26 27 28 29 30 31 32 33 34 35 36 37 38 39 40 41 42 43 44 45 46 47 48 49 50
000
ASUS43 KLMK 260302
RWRKY
KENTUCKY REGIONAL WEATHER ROUNDUP
NATIONAL WEATHER SERVICE LOUISVILLE KY
1100 PM EDT SAT OCT 25 2014

NOTE "FAIR" INDICATES FEW OR NO CLOUDS BELOW 12,000 FEET
WITH NO SIGNIFICANT WEATHER AND/OR OBSTRUCTIONS TO VISIBILITY.

KYZ001>023-026-027-061>063-070>075-260400-
WESTERN AND SOUTH CENTRAL KENTUCKY

CITY           SKY/WX    TMP DP  RH WIND       PRES   REMARKS
PADUCAH        CLEAR     57  56  96 SW3       30.01R
HENDERSON      CLEAR    N/A N/A N/A SW3       30.00S
OWENSBORO      CLEAR     57  55  93 SW3       30.00S
HOPKINSVILLE   CLEAR     61  61 100 SW2       30.02S
BOWLING GREEN  CLEAR     62  58  86 SW3       30.02R
GLASGOW        NOT AVBL
$$

KYZ024-025-028>034-038-045-046-053-260400-
NORTH CENTRAL KENTUCKY

CITY           SKY/WX    TMP DP  RH WIND       PRES   REMARKS
LOUISVILLE/SDF CLEAR     63  56  78 S6        29.97R
LOUISVILLE/LOU CLEAR     60  56  86 S3        29.97S
FORT KNOX      CLEAR     59  54  85 W7        29.97F
$$

KYZ035>037-039>044-047>052-055>060-089>105-260400-
NORTHEAST KENTUCKY

CITY           SKY/WX    TMP DP  RH WIND       PRES   REMARKS
LEXINGTON      CLEAR     63  56  78 SW8       29.97S
COVINGTON      CLEAR     65  50  58 W12       29.92S
FRANKFORT      CLEAR     63  56  78 W6        29.96R
$$

KYZ054-064>069-076>088-106>120-260400-
SOUTHEAST KENTUCKY

CITY           SKY/WX    TMP DP  RH WIND       PRES   REMARKS
JACKSON        CLEAR     59  54  83 VRB3      29.98S
LONDON         CLEAR     54  51  90 CALM      30.01S FOG
SOMERSET       CLEAR     54  54 100 CALM      30.03S FOG
MIDDLESBORO    CLEAR     50  49  99 CALM      30.03S FOG
MONTICELLO     CLEAR     47  46  96 CALM      30.04S FOG
$$




USA.gov is the U.S. government's official web portal to all federal, state and local government web resources and services.